Location: Rockford
(40.2514°N, 96.6004°W)
Time: 22:11:01
(UTC+00:00)

LightSail 2 - Pass Details

Date: 26 September 2019
Orbit: 707 x 722 km, 24.0° (Epoch: 16 October)

Event Time Altitude Azimuth Distance (km) Brightness Sun altitude
Exits shadow 10:08:05 11° 165° (SSE) 2,065 7.5 -25.0°
Drops below altitude 10° 10:09:01 10° 154° (SSE) 2,161 7.7 -24.9°
Sets 10:13:02 0° 124° (SE) 3,079 8.9 -24.1°
